User: anonymous   Login
Location: Caltech
(34.1382°N, 118.1253°W)
Time: 12:19:50
(UTC-08:00)
Language:

Oscar 11 - Orbit

View from above orbital plane
View from above orbital plane
View from above satellite
View from above satellite

Ground track
Ground track

The orbit data is extracted from the following two-line orbital elements,

1 14781U 84021B   16338.68301991  .00000122  00000-0  21357-4 0  9991
2 14781  97.7269  25.2884 0009864 116.3743 243.8485 14.82833937761370
Epoch (UTC): 03 December 2016 16:23:32
Eccentricity: 0.0009864
inclination: 97.7269°
perigee height: 613 km
apogee height: 627 km
right ascension of ascending node: 25.2884°
argument of perigee: 116.3743°
revolutions per day: 14.82833937
mean anomaly at epoch: 243.8485°
orbit number at epoch: 76137

The dashed part of the orbit path shows where the satellite is in the earth's shadow,  

DLR